User: anonymous   Login
Location: Gollag?dem
(16.8053°N, 80.8024°E)
Time: 20:24:10
(UTC+00:00)
Language:

CZ-2C R/B - Orbit

View from above orbital plane
View from above orbital plane
View from above satellite
View from above satellite

Ground track
Ground track

The orbit data is extracted from the following two-line orbital elements,

1 37766U 11039B   20304.22805764 +.00000089 +00000-0 +25348-4 0  9999
2 37766 098.3614 160.1330 0044886 320.7729 039.0224 14.66502057495178
Epoch (UTC): 30 October 2020 05:28:24
Eccentricity: 0.0044886
inclination: 98.3614°
perigee height: 640 km
apogee height: 704 km
right ascension of ascending node: 160.1330°
argument of perigee: 320.7729°
revolutions per day: 14.66502057
mean anomaly at epoch: 39.0224°
orbit number at epoch: 49517

The dashed part of the orbit path shows where the satellite is in the earth's shadow,  

DLR